Location: ??????
(41.3164°N, 22.6615°E)
Time: 19:26:10
(UTC+00:00)

Cosmos 1300 - Pass Details

Date: 06 June 2022
Orbit: 506 x 508 km, 82.5° (Epoch: 30 June)

Event Time Altitude Azimuth Distance (km) Brightness Sun altitude
Rises 21:27:15 0° 1° (N) 2,618 7.5 -24.4°
Reaches altitude 10° 21:29:31 10° 10° (N) 1,728 6.2 -24.5°
Enters shadow 21:32:15 31° 51° (NE) 906 4.1 -24.7°
